FW3123 Weather Reports


time (UTC)temp
C
wind
direction
speed
KPH
gust
KPH
rain 1hr
cm
rain 24hr
cm
rain mn
cm
humidity
%
barometer
mb
20260506014600 10 335 1.6 6.4 0.00 0.00 0.00 45 1012.5
20260506013055 11 288 1.6 4.8 0.00 0.00 0.00 45 1012.3
20260506011552 11 309 1.6 8.0 0.00 0.00 0.00 44 1012.0
20260506010058 11 298 1.6 6.4 0.00 0.00 0.00 43 1011.7
20260506004553 12 284 1.6 3.2 0.00 0.00 0.00 40 1011.7
20260506003051 12 305 1.6 4.8 0.00 0.00 0.00 40 1011.7
20260506001553 12 309 1.6 8.0 0.00 0.00 0.00 38 1011.5
20260506000051 12 304 3.2 11.3 0.00 0.00 0.00 36 1011.5
20260505234549 13 310 8.0 14.5 0.00 0.00 0.00 35 1011.7
20260505233055 13 335 4.8 19.3 0.00 0.00 0.00 36 1011.6
20260505231549 13 333 6.4 20.9 0.00 0.00 0.00 34 1011.6
20260505230050 13 335 8.0 16.1 0.00 0.00 0.00 33 1011.7
20260505224549 13 309 4.8 25.7 0.00 0.00 0.00 33 1011.7
20260505223050 13 270 16.1 25.7 0.00 0.00 0.00 32 1011.7
20260505221547 13 293 4.8 22.5 0.00 0.00 0.00 33 1011.8
20260505220046 13 322 12.9 22.5 0.00 0.00 0.00 33 1011.9
20260505214546 13 290 11.3 20.9 0.00 0.00 0.00 33 1011.7
20260505213047 14 268 9.7 25.7 0.00 0.00 0.00 32 1011.7
20260505211545 13 269 9.7 29.0 0.00 0.00 0.00 32 1011.6
20260505210044 13 341 11.3 20.9 0.00 0.00 0.00 31 1011.8
20260505204544 13 309 12.9 27.4 0.00 0.00 0.00 31 1011.7
20260505203143 13 239 16.1 29.0 0.00 0.00 0.00 29 1011.8
20260505201545 13 302 11.3 25.7 0.00 0.00 0.00 30 1011.9
20260505200041 14 281 12.9 32.2 0.00 0.00 0.00 29 1011.9
20260505194548 14 304 17.7 33.8 0.00 0.00 0.00 28 1012.0
20260505193100 14 269 19.3 33.8 0.00 0.00 0.00 28 1012.3
20260505191542 13 271 16.1 30.6 0.00 0.00 0.00 29 1012.1
20260505190041 13 248 17.7 30.6 0.00 0.00 0.00 31 1012.1
20260505184538 13 290 17.7 32.2 0.00 0.00 0.00 30 1012.2
20260505183037 14 296 17.7 32.2 0.00 0.00 0.00 32 1012.1
20260505181535 13 328 12.9 37.0 0.00 0.00 0.00 30 1011.8
20260505180039 13 265 17.7 29.0 0.00 0.00 0.00 32 1011.6
20260505174534 13 276 19.3 29.0 0.00 0.00 0.00 32 1011.5
20260505173032 13 279 14.5 25.7 0.00 0.00 0.00 33 1011.5
20260505171536 13 284 17.7 30.6 0.00 0.00 0.00 32 1011.7
20260505170034 13 283 14.5 30.6 0.00 0.00 0.00 34 1011.4
20260505164537 13 277 9.7 27.4 0.00 0.00 0.00 36 1011.2
20260505163036 13 274 12.9 25.7 0.00 0.00 0.00 33 1011.4
20260505161531 13 303 16.1 29.0 0.00 0.00 0.00 35 1011.5
20260505153034 11 281 8.0 14.5 0.00 0.00 0.00 43 1011.5
20260505151528 10 262 11.3 19.3 0.00 0.00 0.00 42 1011.9
20260505124510 8 304 8.0 17.7 0.00 0.00 0.00 46 1011.3
20260505123008 8 322 3.2 17.7 0.00 0.00 0.00 47 1011.3
20260505121506 8 306 6.4 14.5 0.00 0.00 0.00 48 1011.2
20260505120003 8 302 8.0 14.5 0.00 0.00 0.00 49 1011.3
20260505114600 -17 0.0 0.0 0.00 0.00 0.00 1010.3
20260505113059 -17 0.0 0.0 0.00 0.00 0.00 1009.9
20260505111551 -17 0.0 0.0 0.00 0.00 0.00 1009.3
20260505101536 -17 0.0 0.0 0.00 0.00 0.00 1009.0
20260505100031 -17 0.0 0.0 0.00 0.00 0.00 1008.9
20260505094525 -17 0.0 0.0 0.00 0.00 0.00 1009.0
20260505093020 -17 0.0 0.0 0.00 0.00 0.00 1008.7
20260505091519 10 5 8.0 24.1 0.00 0.00 0.00 1008.6
20260505090012 10 316 11.3 25.7 0.00 0.00 0.00 49 1008.5
20260505084513 10 337 19.3 33.8 0.00 0.00 0.00 48 1008.0
20260505083015 10 349 14.5 22.5 0.00 0.00 0.00 51 1007.7
20260505081502 11 302 9.7 19.3 0.00 0.00 0.00 52 1007.2
20260505080105 11 330 6.4 16.1 0.00 0.00 0.00 52 1007.1
20260505074556 11 355 6.4 9.7 0.00 0.00 0.00 51 1006.5
20260505073059 12 320 6.4 19.3 0.00 0.00 0.00 49 1006.5
20260505071600 12 309 8.0 17.7 0.00 0.00 0.00 48 1006.1
20260505070051 12 275 4.8 22.5 0.00 0.00 0.00 47 1006.0
20260505064541 13 318 8.0 25.7 0.00 0.00 0.00 45 1005.7
20260505063041 13 313 12.9 27.4 0.00 0.00 0.00 42 1005.6
20260505061534 14 298 8.0 19.3 0.00 0.00 0.00 41 1005.1
20260505060052 15 322 8.0 24.1 0.00 0.00 0.00 41 1005.2
20260505054528 15 304 4.8 12.9 0.00 0.00 0.00 42 1005.2
20260505053024 15 295 6.4 17.7 0.00 0.00 0.00 38 1005.0
20260505051521 15 292 12.9 20.9 0.00 0.00 0.00 36 1004.3
20260505041514 17 277 8.0 16.1 0.00 0.00 0.00 37 1003.9
20260505040020 17 306 8.0 24.1 0.00 0.00 0.00 37 1003.5
20260505034513 17 318 11.3 24.1 0.00 0.00 0.00 38 1003.1
20260505033015 18 299 6.4 17.7 0.00 0.00 0.00 40 1002.7
20260505031512 18 331 9.7 27.4 0.00 0.00 0.00 39 1002.9
20260505030012 20 321 12.9 30.6 0.00 0.00 0.00 38 1002.8
20260505024511 20 355 9.7 27.4 0.00 0.00 0.00 38 1002.6
20260505023010 21 278 14.5 32.2 0.00 0.00 0.00 38 1002.1
20260505021509 21 275 11.3 19.3 0.00 0.00 0.00 45 1001.8
20260505020009 21 267 6.4 14.5 0.00 0.00 0.00 46 1001.5